Location: Bailey Volunteer Fire Department
(33.4359°N, 96.1680°W)
Time: 16:19:53
(UTC+00:00)

Cosmos 1898 Rocket - Pass Details

Date: 13 December 2025
Orbit: 749 x 779 km, 74.0° (Epoch: 14 January)

Event Time Altitude Azimuth Distance (km) Brightness Sun altitude
Rises 23:43:05 0° 182° (S) 3,178 7.1 -5.6°
Reaches altitude 10° 23:45:30 10° 176° (S) 2,257 6.2 -6.0°
Maximum altitude 23:50:24 49° 103° (ESE) 961 3.7 -7.0°
Drops below altitude 10° 23:55:21 10° 29° (NNE) 2,275 5.5 -7.9°
Enters shadow 23:57:36 - 24° (NNE) 3,138 6.2 -8.3°
